Tracking 18980 objects as of 22-Feb-2018
HD Live streaming from Space Station
objects crossing your sky now

FENGYUN 1C DEB

Track FENGYUN 1C DEB now!
10-day predictions


NORAD ID: 31731
Int'l Code: 1999-025CEE
Perigee: 825.3 km
Apogee: 847.2 km
Inclination: 99.3 °
Period: 101.5 minutes
Semi major axis: 7207 km
RCS: 0.0064 m2 (small)
Launch date: May 10, 1999
Source: People's Republic of China (PRC)
Launch site: Taiyaun Space Center, China (TSC)

Note: This is SATELLITE DEBRIS
aabbcc
Your satellite tracking list
Your tracking list is empty




NASA's NSSDC Master Catalog

Two Line Element Set (TLE):
1 31731U 99025CEE 18052.00169393 +.00000652 +00000-0 +33614-3 0  9990
2 31731 099.3382 257.0074 0015247 308.5600 051.4207 14.18891333552335
Source of the keplerian elements: AFSPC